Hourly Data Report for June 23, 2020

OTTAWA INTL A
ONTARIO
Current Station Operator: NAVCAN

45°19'00.000" N
75°40'00.000" W
114.90 m
6106001
71628
YOW

Download Data

Hourly Data (June 2020)
Hourly Data Report for June 23, 2020
TIME Temp Definition
°C
Dew Point Definition
°C
Rel Hum Definition
%
Wind Dir Definition
10's deg

Wind Spd Definition
km/h
Visibility Definition
km
Stn Press Definition
kPa
Hmdx Definition


Wind Chill Definition


Weather Definition


00:00 20.1 18.7 92 5 10 24.1 99.54 27   LegendNANA
01:00 20.3 19.2 93 6 8 24.1 99.48 27   Mostly Cloudy
02:00 19.7 18.9 95 4 12 24.1 99.44     LegendNANA
03:00 19.5 18.9 96 9 8 24.1 99.40     LegendNANA
04:00 19.4 18.6 95 6 7 16.1 99.35     Mostly Cloudy
05:00 19.7 18.8 95 10 12 16.1 99.32     LegendNANA
06:00 20.7 19.1 91 12 8 24.1 99.31 28   LegendNANA
07:00 22.4 19.6 84 15 11 24.1 99.27 30   Mostly Cloudy
08:00 25.0 20.0 73 17 13 24.1 99.22 33   LegendNANA
09:00 27.3 19.7 63 16 16 24.1 99.17 35   LegendNANA
10:00 28.8 20.4 60 18 14 24.1 99.14 37   Mainly Clear
11:00 30.1 20.4 55 17 24 24.1 99.07 38   LegendNANA
12:00 29.1 19.6 56 20 24 24.1 99.02 36   LegendNANA
13:00 30.1 19.1 51 18 30 24.1 98.91 37   Mostly Cloudy
14:00 30.4 18.5 48 19 30 24.1 98.86 37   LegendNANA
15:00 30.2 16.8 44 21 26 24.1 98.84 35   LegendNANA
16:00 29.9 17.6 47 20 23 24.1 98.80 36   Mostly Cloudy
17:00 28.2 16.9 50 22 22 24.1 98.76 33   LegendNANA
18:00 27.4 16.9 52 22 16 24.1 98.70 33   LegendNANA
19:00 26.1 17.7 59 24 12 24.1 98.67 32   Mostly Cloudy
20:00 24.5 18.1 67 14 9 24.1 98.63 31   LegendNANA
21:00 24.5 17.7 65 10 10 24.1 98.61 30   LegendNANA
22:00 21.6 19.9 90 19 17 24.1 98.66 29   Rain Showers
23:00 20.6 19.3 92 16 9 24.1 98.61 28   Rain Showers

Notes on Data Quality.

Legend

  • E = Estimated
  • M = Missing
  • NA = Not Available*
  • [empty] = Indicates an unobserved value
Date modified: